Location: Peterborough
(44.3091°N, 78.3197°W)
Time: 04:31:33
(UTC-04:00)

Vanguard 1 Rocket - Visible Passes

Search period start: 22 March 2023 00:00
Search period end: 01 April 2023 00:00
Orbit: 652 x 4223 km, 34.3° (Epoch: 21 March)

Date Brightness Start Highest point End Pass type
(mag) Time Alt. Az. Time Alt. Az. Time Alt. Az.
22 Mar10.901:35:13E01:35:13E01:04:18SWvisible
22 Mar 9.0 03:52:28 39° SSE 03:52:28 39° SSE 03:57:02 10° ESE visible
22 Mar 9.0 06:09:43 15° WSW 06:14:14 22° SW 06:18:44 10° SSE visible
22 Mar 11.0 21:26:09 10° S 21:40:32 21° SE 21:40:32 21° SE visible
22 Mar 11.1 23:50:19 10° SW 23:57:54 23° SSW 23:57:54 23° SSW visible
23 Mar 10.0 02:44:58 19° ESE 02:44:58 19° ESE 02:46:42 10° ESE visible
23 Mar 8.8 05:02:13 34° SW 05:03:32 35° SSW 05:09:31 10° SE visible
23 Mar 11.1 20:19:16 10° SSE 20:28:15 13° SE 20:34:12 11° ESE visible
23 Mar 10.7 22:36:53 10° SSW 22:51:34 31° S 22:51:34 31° S visible
24 Mar 10.8 01:06:00 10° WSW 01:37:30 - E 01:08:57 15° WSW visible
24 Mar 9.0 03:54:46 40° SSE 03:54:46 40° SSE 03:59:41 10° ESE visible
24 Mar 9.2 06:12:01 13° WSW 06:16:22 18° SW 06:20:38 10° S visible
24 Mar 10.7 21:24:59 10° S 21:43:29 27° SE 21:45:18 27° SE visible
24 Mar 10.8 23:51:10 10° SW 00:02:41 31° SSW 00:02:41 31° SSW visible
25 Mar 9.9 02:47:20 21° ESE 02:47:20 21° ESE 02:49:25 10° ESE visible
25 Mar 9.0 05:04:36 31° SW 05:05:46 32° SSW 05:11:53 10° SSE visible
25 Mar 11.0 20:15:31 10° S 20:30:03 19° SE 20:39:05 14° ESE visible
25 Mar 10.4 22:37:14 10° SW 22:56:27 40° SSE 22:56:27 40° SSE visible
26 Mar 10.8 01:07:28 10° WSW 01:39:58 - E 01:13:51 22° WSW visible
26 Mar 9.1 03:57:14 38° SSE 03:57:14 38° SSE 04:02:14 10° SE visible
26 Mar 9.5 06:14:30 11° WSW 06:18:23 15° SW 06:22:05 10° SSW visible
26 Mar 10.5 21:24:37 10° SSW 21:45:22 33° SSE 21:50:15 30° SE visible
26 Mar 10.5 23:52:18 10° SW 00:07:38 41° SSW 00:07:38 41° SSW visible
27 Mar 10.0 02:24:46 10° W 02:49:55 21° ESE 02:52:03 10° ESE visible
27 Mar 9.2 05:07:12 28° SW 05:07:53 28° SW 05:14:04 10° SSE visible
27 Mar 10.9 20:13:53 10° S 20:31:44 24° SE 20:44:01 14° ESE visible
27 Mar 10.2 22:37:57 10° SW 23:01:05 47° SSE 23:01:24 47° SSE visible
28 Mar 10.8 01:09:04 10° WSW 01:42:41 - ESE 01:18:48 30° WSW visible
28 Mar 9.2 03:59:58 34° S 03:59:58 34° S 04:04:41 10° SE visible
28 Mar 9.8 06:17:36 10° WSW 06:20:15 11° SW 06:22:33 10° SW visible
28 Mar 10.4 21:24:50 10° SSW 21:47:11 39° SSE 21:55:08 31° ESE visible
28 Mar 10.2 23:53:39 10° WSW 00:12:30 51° SSW 00:12:30 51° SSW visible
29 Mar 10.1 02:26:38 10° W 02:52:49 19° SE 02:54:38 10° ESE visible
29 Mar 9.4 05:10:08 24° SW 05:10:08 24° SW 05:16:00 10° S visible
29 Mar 11.0 20:13:17 10° SSW 20:33:21 30° SE 20:48:46 13° E visible
29 Mar 10.1 22:38:59 10° SW 23:03:05 52° SSE 23:06:08 50° SE visible
30 Mar 10.5 01:10:46 10° WSW 01:45:47 - ESE 01:23:30 37° WSW visible
30 Mar 9.5 04:03:05 28° S 04:03:05 28° S 04:06:59 10° SSE visible
30 Mar 10.5 21:25:28 10° SW 21:48:58 45° SSE 21:59:40 29° ESE visible
30 Mar 10.0 23:55:10 10° WSW 00:17:01 58° SSW 00:17:01 58° SSW visible
31 Mar 10.3 02:28:32 10° W 02:56:09 14° SE 02:57:06 10° SE visible
31 Mar 9.7 05:13:28 19° SW 05:13:28 19° SW 05:17:38 10° S visible
31 Mar 10.9 20:13:22 10° SSW 20:34:55 36° SE 20:53:03 11° E visible
31 Mar 10.0 22:40:16 10° SW 23:05:04 57° SSE 23:10:24 48° SE visible
